When you browse on this site, cookies collect data to enhance your experience and personalize the content and advertising you see.
Visit our Privacy Policy to learn more. By continuing to use the site, you agree to this use of cookies and data.
  • En España
  • Lista de países
  • Para 7 días
  • Temperatura del agua
  • El tiempo en el mapa
  • Informadores
  • user-avatar
    Iniciar sesión

    Tiempo cada hora Verbovo

    Hoy, 21 Septiembre, Sábado

    Tiempo Temperatura Precipitaciones Viento Presión Humedad
    00:00 +1°C° 0 mm 2 mps 743 mmHg 95%
    01:00 +1°C° 0 mm 2 mps 743 mmHg 95%
    02:00 -1°C° 0 mm 2 mps 744 mmHg 94%
    03:00 -1°C° 0 mm 2 mps 744 mmHg 94%
    04:00 -1°C° 0 mm 2 mps 744 mmHg 94%
    05:00 -1°C° 0 mm 2 mps 744 mmHg 93%
    06:00 +1°C° 0 mm 2 mps 744 mmHg 87%
    07:00 +2°C° 0 mm 2 mps 744 mmHg 81%
    08:00 +3°C° 0 mm 3 mps 744 mmHg 75%
    09:00 +4°C° 0 mm 3 mps 743 mmHg 73%
    10:00 +5°C° 0 mm 4 mps 743 mmHg 70%
    11:00 +7°C° 0 mm 4 mps 743 mmHg 68%
    12:00 +7°C° 0 mm 5 mps 742 mmHg 68%
    13:00 +7°C° 0 mm 5 mps 742 mmHg 68%
    14:00 +8°C° 0 mm 6 mps 741 mmHg 68%
    15:00 +7°C° 0.4 mm 6 mps 740 mmHg 76%
    16:00 +5°C° 0.4 mm 6 mps 739 mmHg 84%
    17:00 +5°C° 0.4 mm 5 mps 739 mmHg 93%
    18:00 +5°C° 0.5 mm 5 mps 738 mmHg 94%
    19:00 +5°C° 0.5 mm 5 mps 737 mmHg 95%
    20:00 +6°C° 0.5 mm 4 mps 736 mmHg 97%
    21:00 +7°C° 0.5 mm 4 mps 736 mmHg 97%
    22:00 +7°C° 0.5 mm 5 mps 735 mmHg 97%
    23:00 +8°C° 0.5 mm 5 mps 735 mmHg 97%

    Mañana, 22 Septiembre, Domingo

    Tiempo Temperatura Precipitaciones Viento Presión Humedad
    00:00 +9°C° 0.4 mm 5 mps 734 mmHg 95%
    01:00 +9°C° 0.4 mm 6 mps 734 mmHg 94%
    02:00 +9°C° 0.4 mm 6 mps 734 mmHg 93%
    03:00 +9°C° 0.3 mm 6 mps 734 mmHg 93%
    04:00 +9°C° 0.3 mm 6 mps 734 mmHg 93%
    05:00 +8°C° 0.3 mm 6 mps 734 mmHg 93%
    06:00 +8°C° 0.4 mm 6 mps 734 mmHg 93%
    07:00 +8°C° 0.4 mm 5 mps 734 mmHg 92%
    08:00 +8°C° 0.4 mm 5 mps 734 mmHg 92%
    09:00 +8°C° 0.2 mm 6 mps 735 mmHg 86%
    10:00 +9°C° 0.2 mm 7 mps 735 mmHg 80%
    11:00 +10°C° 0.2 mm 8 mps 735 mmHg 74%
    12:00 +9°C° 0.1 mm 8 mps 735 mmHg 71%
    13:00 +9°C° 0.1 mm 7 mps 736 mmHg 68%
    14:00 +8°C° 0.1 mm 7 mps 736 mmHg 66%
    15:00 +7°C° 0 mm 6 mps 737 mmHg 66%
    16:00 +7°C° 0 mm 6 mps 738 mmHg 67%
    17:00 +6°C° 0 mm 5 mps 738 mmHg 67%
    18:00 +5°C° 0 mm 5 mps 739 mmHg 71%
    19:00 +3°C° 0 mm 5 mps 740 mmHg 74%
    20:00 +3°C° 0 mm 4 mps 741 mmHg 77%
    21:00 +1°C° 0 mm 4 mps 741 mmHg 80%
    22:00 +1°C° 0 mm 4 mps 741 mmHg 82%
    23:00 +1°C° 0 mm 3 mps 742 mmHg 85%

    Pasado mañana, 23 Septiembre, Lunes

    Tiempo Temperatura Precipitaciones Viento Presión Humedad
    00:00 +1°C° 0 mm 3 mps 742 mmHg 88%
    01:00 0°C° 0 mm 3 mps 743 mmHg 91%
    02:00 0°C° 0 mm 3 mps 743 mmHg 93%
    03:00 -1°C° 0 mm 3 mps 744 mmHg 94%
    04:00 -1°C° 0 mm 3 mps 744 mmHg 95%
    05:00 -1°C° 0 mm 3 mps 744 mmHg 95%
    06:00 0°C° 0 mm 3 mps 745 mmHg 90%
    07:00 +1°C° 0 mm 3 mps 745 mmHg 85%
    08:00 +2°C° 0 mm 3 mps 745 mmHg 79%
    09:00 +3°C° 0 mm 3 mps 745 mmHg 72%
    10:00 +5°C° 0 mm 3 mps 746 mmHg 65%
    11:00 +7°C° 0 mm 3 mps 746 mmHg 58%
    12:00 +7°C° 0 mm 3 mps 745 mmHg 57%
    13:00 +8°C° 0 mm 3 mps 745 mmHg 56%
    14:00 +7°C° 0 mm 4 mps 745 mmHg 55%
    15:00 +8°C° 0 mm 3 mps 745 mmHg 59%
    16:00 +7°C° 0 mm 3 mps 745 mmHg 63%
    17:00 +6°C° 0 mm 2 mps 745 mmHg 66%
    18:00 +5°C° 0 mm 2 mps 745 mmHg 70%
    19:00 +4°C° 0 mm 2 mps 745 mmHg 73%
    20:00 +3°C° 0 mm 1 mps 745 mmHg 77%
    21:00 +3°C° 0 mm 1 mps 745 mmHg 79%
    22:00 +3°C° 0 mm 1 mps 745 mmHg 81%
    23:00 +2°C° 0 mm 1 mps 745 mmHg 83%

    24 Septiembre, Martes

    Tiempo Temperatura Precipitaciones Viento Presión Humedad
    00:00 +2°C° 0 mm 1 mps 745 mmHg 85%
    01:00 +2°C° 0 mm 1 mps 745 mmHg 87%
    02:00 +1°C° 0 mm 1 mps 746 mmHg 89%
    03:00 +1°C° 0 mm 1 mps 745 mmHg 90%
    04:00 +1°C° 0 mm 1 mps 745 mmHg 91%
    05:00 +1°C° 0 mm 1 mps 745 mmHg 91%
    06:00 +2°C° 0 mm 1 mps 745 mmHg 86%
    07:00 +3°C° 0 mm 1 mps 745 mmHg 81%
    08:00 +5°C° 0 mm 1 mps 745 mmHg 76%
    09:00 +6°C° 0 mm 1 mps 745 mmHg 70%
    10:00 +7°C° 0 mm 1 mps 745 mmHg 64%
    11:00 +9°C° 0 mm 1 mps 745 mmHg 57%
    12:00 +9°C° 0 mm 1 mps 745 mmHg 57%
    13:00 +9°C° 0 mm 1 mps 744 mmHg 57%
    14:00 +9°C° 0 mm 1 mps 744 mmHg 56%
    15:00 +8°C° 0 mm 1 mps 744 mmHg 59%
    16:00 +8°C° 0 mm 1 mps 744 mmHg 62%
    17:00 +7°C° 0 mm 1 mps 744 mmHg 65%
    18:00 +7°C° 0 mm 1 mps 744 mmHg 65%
    19:00 +6°C° 0 mm 1 mps 744 mmHg 66%
    20:00 +6°C° 0 mm 1 mps 744 mmHg 66%
    21:00 +5°C° 0 mm 1 mps 744 mmHg 67%
    22:00 +4°C° 0 mm 0 mps 744 mmHg 69%
    23:00 +4°C° 0 mm 0 mps 744 mmHg 70%

    25 Septiembre, Miércoles

    Tiempo Temperatura Precipitaciones Viento Presión Humedad
    00:00 +3°C° 0 mm 0 mps 744 mmHg 73%
    01:00 +3°C° 0 mm 1 mps 744 mmHg 75%
    02:00 +3°C° 0 mm 1 mps 744 mmHg 77%
    03:00 +2°C° 0 mm 1 mps 743 mmHg 80%
    04:00 +2°C° 0 mm 1 mps 743 mmHg 83%
    05:00 +1°C° 0 mm 1 mps 743 mmHg 86%
    06:00 +2°C° 0 mm 1 mps 743 mmHg 82%
    07:00 +4°C° 0 mm 1 mps 743 mmHg 78%
    08:00 +5°C° 0 mm 1 mps 744 mmHg 73%
    09:00 +5°C° 0 mm 2 mps 744 mmHg 67%
    10:00 +7°C° 0 mm 2 mps 744 mmHg 61%
    11:00 +8°C° 0 mm 2 mps 744 mmHg 54%
    12:00 +8°C° 0 mm 2 mps 744 mmHg 54%
    13:00 +8°C° 0 mm 2 mps 743 mmHg 54%
    14:00 +9°C° 0 mm 2 mps 743 mmHg 54%
    15:00 +8°C° 0 mm 2 mps 743 mmHg 58%
    16:00 +7°C° 0 mm 2 mps 743 mmHg 63%
    17:00 +7°C° 0 mm 2 mps 743 mmHg 68%
    18:00 +5°C° 0 mm 2 mps 743 mmHg 70%
    19:00 +4°C° 0 mm 2 mps 743 mmHg 72%
    20:00 +3°C° 0 mm 2 mps 743 mmHg 75%
    21:00 +3°C° 0 mm 2 mps 743 mmHg 74%
    22:00 +3°C° 0 mm 2 mps 743 mmHg 74%
    23:00 +3°C° 0 mm 2 mps 743 mmHg 74%

    26 Septiembre, Jueves

    Tiempo Temperatura Precipitaciones Viento Presión Humedad
    00:00 +2°C° 0 mm 3 mps 743 mmHg 74%
    01:00 +2°C° 0 mm 3 mps 742 mmHg 74%
    02:00 +2°C° 0 mm 3 mps 742 mmHg 73%
    03:00 +3°C° 0 mm 3 mps 742 mmHg 73%
    04:00 +3°C° 0 mm 3 mps 742 mmHg 74%
    05:00 +3°C° 0 mm 3 mps 742 mmHg 74%
    06:00 +3°C° 0 mm 4 mps 742 mmHg 73%
    07:00 +4°C° 0 mm 4 mps 741 mmHg 72%
    08:00 +3°C° 0 mm 5 mps 741 mmHg 70%
    09:00 +5°C° 0 mm 5 mps 741 mmHg 69%
    10:00 +6°C° 0 mm 5 mps 741 mmHg 67%
    11:00 +5°C° 0 mm 6 mps 741 mmHg 66%
    12:00 +5°C° 0.3 mm 6 mps 741 mmHg 72%
    13:00 +5°C° 0.3 mm 5 mps 740 mmHg 77%
    14:00 +5°C° 0.3 mm 5 mps 740 mmHg 83%
    15:00 +5°C° 0.2 mm 5 mps 740 mmHg 86%
    16:00 +3°C° 0.2 mm 5 mps 740 mmHg 89%
    17:00 +3°C° 0.2 mm 5 mps 739 mmHg 91%
    18:00 +3°C° 0 mm 5 mps 739 mmHg 91%
    19:00 +3°C° 0 mm 5 mps 739 mmHg 91%
    20:00 +3°C° 0 mm 5 mps 739 mmHg 91%
    21:00 +3°C° 0 mm 5 mps 739 mmHg 91%
    22:00 +3°C° 0 mm 5 mps 739 mmHg 91%
    23:00 +3°C° 0 mm 5 mps 739 mmHg 91%
    Mostrar más